[[{"header":{"parameterUnit":"m.s-1","parameterCategory":1,"la1":30.2991,"la2":30.254,"lo1":-89.0895,"lo2":-89.0444,"dy":0.0017,"dx":0.0017,"nx":28,"ny":28,"refTime":"2024-05-04T03:00:00:Z","depth":0,"parameterNumber":2,"parameterNumberName":"U-component_of_WINDS"},"data":[0,0,0,0,0,0,0,0,0,0,0,0,0,0,0,0,0,0,0,0,0,0,0,0,0,0,0,0,0,0,0,0,0,0,0,0,0,0,0,0,0,0,0,0,0,0,0,0,0,0,0,0,0,0,0,0,0,0,-1.9887,-1.9887,0,-1.9848,-1.9848,-1.9848,-1.9791,-1.979,-1.9789,-1.9788,-1.9745,-1.9745,-1.9745,0,0,0,0,0,0,0,0,0,0,0,0,0,-1.9912,-1.9912,-1.9887,-1.9887,-1.9886,-1.9849,-1.9848,-1.9847,-1.9791,-1.979,-1.9788,-1.9787,-1.9745,-1.9745,-1.9745,0,0,0,0,0,0,0,0,0,0,0,0,0,-1.989,-1.9912,-1.9887,-1.9853,-1.985,-1.9849,-1.9848,-1.9847,-1.9791,-1.9789,-1.9788,-1.9787,-1.9745,-1.9745,-1.9745,-1.9772,0,0,-1.9744,-1.9743,0,0,0,0,0,0,0,0,-1.9892,-1.9889,-1.9859,-1.9856,-1.9852,-1.9823,-1.9841,-1.9822,-1.9791,-1.9813,-1.9788,-1.9786,-1.9772,-1.9769,-1.9765,-1.977,-1.9768,-1.9744,-1.9743,-1.9743,-1.9743,0,0,0,0,0,0,0,-1.9893,-1.9891,-1.9872,-1.9859,-1.9854,-1.984,-1.9836,-1.9837,-1.9801,-1.9811,-1.9807,-1.9803,-1.977,-1.9766,-1.9764,-1.9768,-1.9744,-1.9743,-1.9743,-1.9743,-1.9796,-1.9798,0,0,0,0,0,0,-1.99,-1.9892,-1.9873,-1.9871,-1.9869,-1.9841,-1.9836,-1.9834,-1.9801,-1.9795,-1.9805,-1.9801,-1.9767,-1.9764,-1.9762,-1.9793,-1.9743,-1.9743,-1.9743,-1.9795,-1.9797,-1.9799,0,0,0,0,0,0,-1.9901,-1.9899,-1.9875,-1.988,-1.9876,-1.9842,-1.984,-1.9834,-1.9829,-1.9796,-1.9789,-1.9807,-1.9766,-1.9763,-1.9771,-1.9791,-1.9743,-1.9743,-1.9793,-1.9795,-1.9798,-1.9855,0,0,0,0,0,0,-1.9902,-1.9899,-1.9909,-1.9881,-1.9876,-1.9884,-1.9842,-1.9834,-1.9829,-1.9824,-1.9797,-1.9791,-1.9764,-1.9772,-1.9771,-1.979,-1.9742,-1.9791,-1.9794,-1.9797,-1.9851,-1.9859,-1.9866,0,0,0,0,0,-1.9903,-1.9926,-1.991,-1.9908,-1.9888,-1.9885,-1.9882,-1.9852,-1.9831,-1.9841,-1.982,-1.9791,-1.979,-1.9773,-1.9771,-1.9791,-1.9789,-1.9793,-1.9797,-1.9848,-1.9858,-1.9866,0,0,0,0,0,0,-1.9954,-1.9921,-1.9903,-1.9918,-1.9905,-1.9876,-1.9886,-1.9863,-1.9855,-1.985,-1.9813,-1.9807,-1.9821,-1.9807,-1.9789,-1.9817,-1.9785,-1.9789,-1.9825,-1.9834,-1.9841,-1.9844,-1.9742,0,0,0,0,0,-1.9968,-1.9969,-1.994,-1.9956,-1.9951,-1.992,-1.9918,-1.9897,-1.9881,-1.9875,-1.9855,-1.9841,-1.9837,-1.9835,-1.983,-1.9851,-1.9844,-1.9863,-1.9871,-1.9877,-1.988,-1.9891,-1.99,-1.981,-1.981,-1.981,0,0,-1.9995,-1.9977,-1.998,-1.9966,-1.9953,-1.9956,-1.9916,-1.9919,-1.992,-1.9875,-1.9882,-1.9868,-1.985,-1.9865,-1.987,-1.9853,-1.9904,-1.9882,-1.9887,-1.9886,-1.9896,-1.9904,-1.9912,-1.9813,-1.9812,-1.9812,0,0,-2.0045,-2.0032,-2.0044,-2.0034,-2.0017,-1.9997,-2.0,-1.9976,-1.9964,-1.9972,-1.9939,-1.994,-1.9934,-1.9924,-1.9917,-1.9969,-1.9943,-1.9969,-2.0006,-2.0018,-2.0025,-2.0031,-2.005,-2.0057,-1.9972,-1.9972,-1.9972,0,-2.008,-2.0082,-2.0053,-2.006,-2.0055,-2.0018,-2.003,-2.0021,-2.0003,-2.0001,-1.9983,-1.9977,-1.9962,-1.9975,-1.9989,-1.9985,-1.9988,-1.997,-2.0027,-2.0033,-2.0038,-2.0055,-2.0062,-1.9975,-1.9975,-1.9975,-1.9974,0,-2.0127,-2.013,-2.0142,-2.0127,-2.0124,-2.0134,-2.0107,-2.0108,-2.0088,-2.0071,-2.008,-2.0062,-2.0053,-2.0055,-2.0035,-2.0066,-2.0057,-2.0034,-2.0,-2.005,-2.0066,-2.0072,-1.998,-1.9979,-1.9978,-1.9977,0,0,-2.0204,-2.0177,-2.0182,-2.0176,-2.0156,-2.0158,-2.0167,-2.016,-2.0162,-2.0152,-2.0159,-2.0158,-2.0137,-2.013,-2.0109,-2.012,-2.0164,-2.0096,-2.0095,-2.0109,-2.0198,-2.0215,-2.0223,-2.0147,-2.0149,-2.015,-2.02,0,-2.025,-2.0263,-2.024,-2.0259,-2.0262,-2.0229,-2.0237,-2.0226,-2.0212,-2.0212,-2.0196,-2.0196,-2.0169,-2.0165,-2.0174,-2.0156,-2.0181,-2.0153,-2.0153,-2.0153,-2.0157,-2.0231,-2.0247,-2.0295,-2.0205,-2.0206,-2.0207,0,-2.0303,-2.0298,-2.0318,-2.0301,-2.0301,-2.0309,-2.0302,-2.0304,-2.0292,-2.0281,-2.0276,-2.0252,-2.0261,-2.0232,-2.0243,-2.0225,-2.0225,-2.0216,-2.0218,-2.0215,-2.0182,-2.0229,-2.031,-2.0316,-2.0217,-2.0216,-2.0215,0,-2.0357,-2.0356,-2.0368,-2.0364,-2.0344,-2.0351,-2.0342,-2.0329,-2.0328,-2.0323,-2.0322,-2.0318,-2.0315,-2.0313,-2.0289,-2.027,-2.0305,-2.0273,-2.0295,-2.0296,-2.0301,-2.0301,-2.0382,-2.0304,-2.0304,-2.0304,-2.0304,0,-2.0409,-2.0423,-2.0393,-2.04,-2.0415,-2.0389,-2.0405,-2.0393,-2.0383,-2.0388,-2.036,-2.0365,-2.0335,-2.0338,-2.032,-2.0333,-2.0332,-2.0323,-2.0318,-2.0325,-2.0326,-2.0322,-2.0318,-2.0306,-2.0305,-2.0305,-2.0305,0,-2.047,-2.0451,-2.0462,-2.0444,-2.044,-2.0452,-2.0436,-2.0443,-2.0428,-2.0436,-2.0436,-2.0413,-2.0415,-2.0392,-2.0389,-2.0377,-2.0399,-2.0388,-2.0403,-2.0399,-2.0422,-2.042,-2.0502,-2.0512,-2.0429,-2.043,-2.0431,0,-2.0504,-2.0514,-2.0498,-2.05,-2.0494,-2.0497,-2.0497,-2.0473,-2.0474,-2.0464,-2.0472,-2.0472,-2.0471,-2.0476,-2.0459,-2.0457,-2.0446,-2.0475,-2.0445,-2.0453,-2.0446,-2.0445,-2.0446,-2.048,-2.0481,-2.0482,-2.0483,0,-2.0565,-2.0556,-2.0557,-2.0556,-2.0556,-2.0554,-2.0549,-2.0552,-2.0527,-2.0529,-2.0532,-2.0531,-2.053,-2.0531,-2.0527,-2.0519,-2.0497,-2.0493,-2.0498,-2.0504,-2.0512,-2.0508,-2.0418,-2.049,-2.049,-2.0489,-2.0489,-2.0488,-2.0613,-2.0622,-2.0612,-2.0615,-2.061,-2.0607,-2.0613,-2.0602,-2.0604,-2.0601,-2.0588,-2.0594,-2.0585,-2.0577,-2.0572,-2.0576,-2.0562,-2.0569,-2.0571,-2.0573,-2.0577,-2.0514,-2.0576,-2.0575,-2.0575,-2.0575,-2.0575,0,-2.0673,-2.0667,-2.067,-2.0665,-2.0668,-2.065,-2.0645,-2.0648,-2.0654,-2.0649,-2.0649,-2.0654,-2.0655,-2.0641,-2.0641,-2.0647,-2.0637,-2.0648,-2.0646,-2.0645,-2.059,-2.0585,-2.0656,-2.0656,-2.0656,-2.0656,-2.0656,-2.0656,-2.0704,-2.0718,-2.0709,-2.0721,-2.0714,-2.072,-2.0719,-2.0717,-2.0713,-2.072,-2.0722,-2.0713,-2.0704,-2.0704,-2.0706,-2.0701,-2.0702,-2.0716,-2.0709,-2.0657,-2.0649,-2.0641,-2.0636,-2.0717,-2.0717,-2.0763,-2.0764,-2.0764]},{"header":{"parameterUnit":"m.s-1","parameterCategory":1,"la1":30.2991,"la2":30.254,"lo1":-89.0895,"lo2":-89.0444,"dy":0.0017,"dx":0.0017,"nx":28,"ny":28,"refTime":"2024-05-04T03:00:00:Z","depth":0,"parameterNumber":3,"parameterNumberName":"V-component_of_WINDS"},"data":[0,0,0,0,0,0,0,0,0,0,0,0,0,0,0,0,0,0,0,0,0,0,0,0,0,0,0,0,0,0,0,0,0,0,0,0,0,0,0,0,0,0,0,0,0,0,0,0,0,0,0,0,0,0,0,0,0,0,3.5271,3.5271,0,3.5282,3.5283,3.5283,3.5322,3.5323,3.5324,3.5325,3.5331,3.5331,3.533,0,0,0,0,0,0,0,0,0,0,0,0,0,3.528,3.528,3.5271,3.5271,3.5271,3.5282,3.5283,3.5283,3.5322,3.5323,3.5324,3.5325,3.5332,3.5331,3.533,0,0,0,0,0,0,0,0,0,0,0,0,0,3.5282,3.528,3.5271,3.5292,3.5294,3.5282,3.5283,3.5283,3.5322,3.5323,3.5324,3.5326,3.5332,3.5331,3.533,3.5297,0,0,3.5327,3.5327,0,0,0,0,0,0,0,0,3.5282,3.5282,3.5289,3.5291,3.5293,3.5302,3.5288,3.5287,3.5321,3.5311,3.5325,3.5326,3.532,3.532,3.5319,3.5297,3.5297,3.5327,3.5326,3.5326,3.5326,0,0,0,0,0,0,0,3.5282,3.5281,3.5275,3.5289,3.5292,3.53,3.5302,3.5288,3.5308,3.5312,3.5315,3.5316,3.5322,3.532,3.532,3.5298,3.5327,3.5326,3.5325,3.5325,3.5249,3.5248,0,0,0,0,0,0,3.5279,3.5281,3.5275,3.5276,3.5291,3.5299,3.5301,3.5298,3.5308,3.5311,3.5315,3.5318,3.5321,3.5321,3.532,3.5282,3.5326,3.5325,3.5324,3.5251,3.5249,3.5248,0,0,0,0,0,0,3.5279,3.5278,3.5275,3.5279,3.528,3.5298,3.5294,3.5297,3.5296,3.531,3.5314,3.531,3.5322,3.5322,3.5303,3.5283,3.5325,3.5324,3.5252,3.525,3.5248,3.5206,0,0,0,0,0,0,3.5279,3.5278,3.5266,3.5279,3.5279,3.5258,3.5292,3.5297,3.5295,3.5299,3.5307,3.5309,3.5323,3.5304,3.5302,3.5282,3.5323,3.5254,3.5251,3.5249,3.5209,3.5203,3.5197,0,0,0,0,0,3.5279,3.5253,3.5265,3.5264,3.5265,3.5257,3.5257,3.5275,3.5293,3.5281,3.529,3.5309,3.5286,3.5302,3.53,3.528,3.5256,3.5252,3.5249,3.5212,3.5204,3.5197,0,0,0,0,0,0,3.5235,3.5255,3.5269,3.5246,3.525,3.5263,3.5248,3.5266,3.5263,3.5267,3.5288,3.529,3.5268,3.5272,3.5289,3.5248,3.5274,3.527,3.5246,3.5239,3.5233,3.5232,3.5322,0,0,0,0,0,3.5223,3.5216,3.5233,3.5211,3.5212,3.523,3.5227,3.5241,3.5245,3.5246,3.5254,3.5256,3.525,3.5245,3.5239,3.5211,3.5212,3.5196,3.519,3.5185,3.5181,3.5166,3.5158,3.5237,3.5237,3.5237,0,0,3.5197,3.5207,3.5201,3.5202,3.5207,3.5198,3.5231,3.522,3.5213,3.5244,3.5227,3.5233,3.5237,3.5213,3.5203,3.5216,3.516,3.5181,3.5176,3.5175,3.5162,3.5154,3.5148,3.5235,3.5235,3.5236,0,0,3.5145,3.5152,3.5135,3.5139,3.5147,3.5159,3.5155,3.5167,3.5173,3.5157,3.518,3.5172,3.516,3.5162,3.5161,3.5113,3.5129,3.511,3.5078,3.5063,3.5057,3.5052,3.5034,3.5027,3.5106,3.5106,3.5106,0,3.5111,3.51,3.5123,3.5111,3.5111,3.5141,3.5123,3.5126,3.513,3.5129,3.5144,3.5131,3.5135,3.5113,3.5101,3.51,3.5095,3.5108,3.5056,3.5051,3.5046,3.503,3.5023,3.5104,3.5104,3.5104,3.5105,0,3.5059,3.5051,3.5035,3.5041,3.5039,3.5024,3.5044,3.5039,3.5054,3.5064,3.5048,3.5055,3.5052,3.5048,3.5061,3.5027,3.5035,3.5053,3.5079,3.5036,3.5021,3.5014,3.51,3.5101,3.5102,3.5103,0,0,3.4977,3.4997,3.4991,3.4995,3.5006,3.5,3.4986,3.4985,3.498,3.4983,3.4971,3.4962,3.4979,3.4978,3.4992,3.498,3.494,3.4999,3.5,3.4988,3.4903,3.4889,3.4881,3.4952,3.4951,3.495,3.4902,0,3.4927,3.4907,3.4928,3.4902,3.4895,3.4924,3.4912,3.4917,3.4927,3.4922,3.4932,3.4925,3.4949,3.4949,3.4938,3.4947,3.4923,3.4951,3.4941,3.494,3.4938,3.4873,3.4857,3.4812,3.4897,3.4896,3.4895,0,3.4866,3.4868,3.4843,3.4857,3.4854,3.4844,3.4845,3.484,3.4846,3.4854,3.4854,3.4873,3.4859,3.4886,3.4868,3.4886,3.4883,3.4888,3.4886,3.4885,3.4914,3.4869,3.4798,3.479,3.4886,3.4886,3.4887,0,3.4809,3.4805,3.4789,3.4791,3.4808,3.4799,3.4805,3.4813,3.4812,3.4812,3.4812,3.481,3.4809,3.4807,3.4824,3.4842,3.4803,3.4831,3.4809,3.4808,3.4798,3.4798,3.4724,3.4798,3.4798,3.4798,3.4798,0,3.4751,3.4734,3.4764,3.4754,3.4736,3.476,3.4741,3.475,3.4757,3.4749,3.4774,3.4766,3.4789,3.4783,3.4796,3.4779,3.4778,3.4784,3.4787,3.4781,3.478,3.4778,3.4781,3.4796,3.4797,3.4797,3.4797,0,3.4683,3.4703,3.4688,3.4705,3.4709,3.4695,3.4709,3.47,3.4713,3.4702,3.4701,3.472,3.4714,3.4732,3.4728,3.4737,3.4712,3.4721,3.471,3.4712,3.4689,3.469,3.461,3.4601,3.4681,3.468,3.4679,0,3.4644,3.4632,3.4649,3.4646,3.4651,3.4646,3.4646,3.4669,3.4667,3.4674,3.4664,3.4661,3.466,3.4649,3.4661,3.4659,3.4667,3.4639,3.4667,3.4661,3.4666,3.4666,3.4665,3.4633,3.4632,3.4631,3.4631,0,3.4573,3.4584,3.4582,3.4584,3.4583,3.4586,3.459,3.4586,3.4611,3.4607,3.4603,3.4602,3.4599,3.4595,3.4596,3.4601,3.4619,3.4622,3.4617,3.461,3.4604,3.4606,3.4693,3.4624,3.4624,3.4625,3.4625,3.4626,3.4518,3.4509,3.452,3.4517,3.4523,3.4527,3.452,3.4533,3.453,3.4531,3.4545,3.4537,3.4545,3.4548,3.4551,3.4545,3.4558,3.455,3.4548,3.4545,3.4541,3.4606,3.4545,3.4545,3.4546,3.4546,3.4546,0,3.4447,3.4457,3.4454,3.446,3.4459,3.4479,3.4485,3.4481,3.4475,3.4481,3.448,3.4475,3.4472,3.4485,3.4484,3.4476,3.4485,3.4475,3.4475,3.4476,3.453,3.4535,3.4468,3.4468,3.4468,3.4468,3.4468,3.4468,3.441,3.4396,3.4409,3.4398,3.4407,3.4401,3.4403,3.4406,3.4411,3.4405,3.4403,3.4413,3.4422,3.4421,3.4419,3.4423,3.4421,3.4408,3.4414,3.4464,3.4472,3.4479,3.4484,3.4407,3.4407,3.4361,3.4361,3.436]}]]